Tracking 31027 objects as of 19-Jul-2025
HD Live streaming from Space Station
objects crossing your sky now

DELTA 1 DEB

Track DELTA 1 DEB now!
10-day predictions


NORAD ID: 7076
Int'l Code: 1973-086BU
Perigee: 1,504.8 km
Apogee: 1,524.0 km
Inclination: 102.3 °
Period: 116.1 minutes
Semi major axis: 7885 km
RCS: 0.1249 m2 (medium)
Launch date: November 6, 1973
Source: United States (US)
Launch site: AIR FORCE WESTERN TEST RANGE (AFWTR)

Note: This is SATELLITE DEBRIS
Your satellite tracking list
SPACEBEE-134
Track 1 satellite(s)




NASA's NSSDC Master Catalog

Two Line Element Set (TLE):
1 07076U 73086BU  25199.51709574 -.00000014  00000-0  24376-3 0  9999
2 07076 102.2790 192.6431 0012158 326.6109 154.1618 12.39849634338967
Source of the keplerian elements: AFSPC